This is the latest recevied weather packets stored in our database for station/object N2WH. If no packets are shown the sender has not sent any weather packets the latest 1 day(s).
| Time | Temp. | Humidity | Pressure | Rain* | Wind** | Luminosity | Snow |
|---|---|---|---|---|---|---|---|
| 1778014937 | 26.67° C | 34% | 1008.4 hPa | 0 mm | 0.89 m/s, 156° | 65 W/m² | - |
| 1778014634 | 26.67° C | 33% | 1008.2 hPa | 0 mm | 2.24 m/s, 284° | 69 W/m² | - |
| 1778014333 | 26.67° C | 34% | 1008.5 hPa | 0 mm | 1.34 m/s, 158° | 121 W/m² | - |
| 1778014028 | 27.22° C | 34% | 1008.2 hPa | 0 mm | 1.34 m/s, 327° | 88 W/m² | - |
| 1778013727 | 27.22° C | 32% | 1008.5 hPa | 0 mm | 2.68 m/s, 253° | 360 W/m² | - |
| 1778013424 | 27.22° C | 34% | 1008.7 hPa | 0 mm | 1.34 m/s, 270° | 362 W/m² | - |
| 1778013121 | 27.78° C | 34% | 1008.6 hPa | 0 mm | 1.34 m/s, 198° | 377 W/m² | - |
| 1778012816 | 27.78° C | 33% | 1008.7 hPa | 0 mm | 1.79 m/s, 175° | 163 W/m² | - |
| 1778012512 | 27.78° C | 35% | 1008.9 hPa | 0 mm | 1.34 m/s, 221° | 447 W/m² | - |
| 1778012209 | 27.78° C | 35% | 1008.6 hPa | 0 mm | 1.34 m/s, 235° | 373 W/m² | - |
| 1778011907 | 27.78° C | 35% | 1008.6 hPa | 0 mm | 0.45 m/s, 205° | 462 W/m² | - |
| 1778011605 | 27.78° C | 33% | 1008.7 hPa | 0 mm | 1.79 m/s, 241° | 500 W/m² | - |
| 1778011301 | 27.78° C | 33% | 1008.6 hPa | 0 mm | 1.34 m/s, 213° | 514 W/m² | - |
| 1778010997 | 28.33° C | 35% | 1008.7 hPa | 0 mm | 0.89 m/s, 191° | 418 W/m² | - |
| 1778010695 | 27.78° C | 34% | 1008.6 hPa | 0 mm | 1.79 m/s, 248° | 529 W/m² | - |
| 1778010392 | 27.78° C | 33% | 1008.7 hPa | 0 mm | 2.24 m/s, 249° | 476 W/m² | - |
| 1778010088 | 27.78° C | 34% | 1009 hPa | 0 mm | 0.45 m/s, 223° | 560 W/m² | - |
| 1778009785 | 27.78° C | 35% | 1009 hPa | 0 mm | 1.34 m/s, 250° | 542 W/m² | - |
| 1778009482 | 27.78° C | 34% | 1009 hPa | 0 mm | 2.24 m/s, 222° | 557 W/m² | - |
| 1778009180 | 27.78° C | 34% | 1009.1 hPa | 0 mm | 1.79 m/s, 282° | 380 W/m² | - |
| 1778008877 | 27.78° C | 33% | 1009 hPa | 0 mm | 0.89 m/s, 154° | 547 W/m² | - |
| 1778008576 | 28.33° C | 33% | 1009 hPa | 0 mm | 1.34 m/s, 266° | 574 W/m² | - |
| 1778008273 | 28.33° C | 34% | 1009 hPa | 0 mm | 1.34 m/s, 157° | 626 W/m² | - |
| 1778007969 | 28.33° C | 35% | 1009.2 hPa | 0 mm | 0.89 m/s, 246° | 649 W/m² | - |
| 1778007664 | 28.33° C | 35% | 1009.4 hPa | 0 mm | 1.34 m/s, 102° | 656 W/m² | - |
* Rain latest hour (hover to see other rain measurements)
** Current wind speed in m/s (hover to see current wind gust speed)